• In Hungary
  • List of Countries
  • For 7 days
  • Water Temperature
  • Satellite Maps
  • Weather Map
  • News
  • Weather Widgets
  • user-avatar
    Login

    Hourly Weather Sarafovo

    Today, 23 June, Saturday

    Time Temperature Precipitation Wind Pressure Humidity
    00:00 +23°C° 0.4 mm 2 mps 754 mmHg 83%
    01:00 +21°C° 0.4 mm 2 mps 754 mmHg 85%
    02:00 +20°C° 0 mm 3 mps 754 mmHg 88%
    03:00 +20°C° 0.3 mm 5 mps 754 mmHg 87%
    04:00 +19°C° 0.3 mm 6 mps 754 mmHg 86%
    05:00 +17°C° 0.3 mm 7 mps 755 mmHg 85%
    06:00 +18°C° 0 mm 8 mps 755 mmHg 78%
    07:00 +20°C° 0 mm 8 mps 755 mmHg 70%
    08:00 +21°C° 0 mm 7 mps 755 mmHg 62%
    09:00 +21°C° 0.1 mm 7 mps 756 mmHg 59%
    10:00 +22°C° 0.1 mm 7 mps 756 mmHg 57%
    11:00 +23°C° 0.1 mm 7 mps 756 mmHg 54%
    12:00 +23°C° 0.1 mm 7 mps 757 mmHg 51%
    13:00 +24°C° 0.1 mm 7 mps 757 mmHg 48%
    14:00 +26°C° 0.1 mm 7 mps 757 mmHg 45%
    15:00 +24°C° 0 mm 7 mps 757 mmHg 44%
    16:00 +24°C° 0 mm 7 mps 757 mmHg 43%
    17:00 +24°C° 0 mm 7 mps 757 mmHg 42%
    18:00 +23°C° 0 mm 6 mps 757 mmHg 46%
    19:00 +21°C° 0 mm 5 mps 757 mmHg 49%
    20:00 +19°C° 0 mm 4 mps 757 mmHg 53%
    21:00 +18°C° 0 mm 4 mps 758 mmHg 57%
    22:00 +17°C° 0 mm 4 mps 758 mmHg 61%
    23:00 +16°C° 0 mm 3 mps 759 mmHg 65%

    Tomorrow, 24 June, Sunday

    Time Temperature Precipitation Wind Pressure Humidity
    00:00 +15°C° 0 mm 4 mps 759 mmHg 66%
    01:00 +14°C° 0 mm 4 mps 759 mmHg 67%
    02:00 +14°C° 0 mm 4 mps 759 mmHg 68%
    03:00 +13°C° 0 mm 4 mps 759 mmHg 69%
    04:00 +13°C° 0 mm 4 mps 759 mmHg 71%
    05:00 +12°C° 0 mm 4 mps 759 mmHg 72%
    06:00 +15°C° 0 mm 4 mps 759 mmHg 65%
    07:00 +18°C° 0 mm 4 mps 759 mmHg 59%
    08:00 +20°C° 0 mm 4 mps 760 mmHg 52%
    09:00 +22°C° 0 mm 3 mps 760 mmHg 48%
    10:00 +25°C° 0 mm 3 mps 760 mmHg 44%
    11:00 +26°C° 0 mm 3 mps 759 mmHg 40%
    12:00 +27°C° 0 mm 3 mps 759 mmHg 39%
    13:00 +27°C° 0 mm 3 mps 759 mmHg 38%
    14:00 +28°C° 0 mm 3 mps 759 mmHg 37%
    15:00 +27°C° 0 mm 3 mps 759 mmHg 40%
    16:00 +26°C° 0 mm 4 mps 759 mmHg 44%
    17:00 +26°C° 0 mm 4 mps 758 mmHg 47%
    18:00 +23°C° 0 mm 4 mps 759 mmHg 56%
    19:00 +21°C° 0 mm 4 mps 759 mmHg 65%
    20:00 +20°C° 0 mm 3 mps 759 mmHg 74%
    21:00 +19°C° 0 mm 3 mps 759 mmHg 77%
    22:00 +18°C° 0 mm 3 mps 759 mmHg 81%
    23:00 +17°C° 0 mm 2 mps 759 mmHg 85%

    Day after tomorrow, 25 June, Monday

    Time Temperature Precipitation Wind Pressure Humidity
    00:00 +17°C° 0 mm 2 mps 759 mmHg 85%
    01:00 +17°C° 0 mm 2 mps 759 mmHg 86%
    02:00 +16°C° 0 mm 2 mps 759 mmHg 87%
    03:00 +16°C° 0 mm 2 mps 759 mmHg 87%
    04:00 +16°C° 0 mm 2 mps 759 mmHg 88%
    05:00 +16°C° 0 mm 2 mps 759 mmHg 89%
    06:00 +18°C° 0 mm 3 mps 759 mmHg 79%
    07:00 +20°C° 0 mm 3 mps 759 mmHg 69%
    08:00 +24°C° 0 mm 3 mps 759 mmHg 59%
    09:00 +25°C° 0 mm 4 mps 759 mmHg 52%
    10:00 +26°C° 0 mm 4 mps 759 mmHg 45%
    11:00 +28°C° 0 mm 5 mps 759 mmHg 39%
    12:00 +28°C° 0 mm 5 mps 759 mmHg 38%
    13:00 +29°C° 0 mm 5 mps 758 mmHg 37%
    14:00 +29°C° 0 mm 6 mps 758 mmHg 36%
    15:00 +28°C° 0 mm 6 mps 758 mmHg 38%
    16:00 +28°C° 0 mm 6 mps 758 mmHg 40%
    17:00 +27°C° 0 mm 6 mps 758 mmHg 43%
    18:00 +24°C° 0 mm 6 mps 758 mmHg 51%
    19:00 +23°C° 0 mm 5 mps 758 mmHg 59%
    20:00 +21°C° 0 mm 5 mps 758 mmHg 67%
    21:00 +20°C° 0 mm 5 mps 758 mmHg 73%
    22:00 +19°C° 0 mm 5 mps 758 mmHg 78%
    23:00 +18°C° 0 mm 4 mps 758 mmHg 84%

    26 June, Tuesday

    Time Temperature Precipitation Wind Pressure Humidity
    00:00 +18°C° 0 mm 4 mps 758 mmHg 85%
    01:00 +17°C° 0 mm 5 mps 757 mmHg 87%
    02:00 +17°C° 0 mm 5 mps 757 mmHg 89%
    03:00 +17°C° 0 mm 5 mps 757 mmHg 90%
    04:00 +17°C° 0 mm 5 mps 757 mmHg 90%
    05:00 +16°C° 0 mm 5 mps 757 mmHg 91%
    06:00 +20°C° 0 mm 6 mps 757 mmHg 81%
    07:00 +22°C° 0 mm 7 mps 757 mmHg 72%
    08:00 +24°C° 0 mm 8 mps 756 mmHg 62%
    09:00 +26°C° 0 mm 8 mps 756 mmHg 58%
    10:00 +28°C° 0 mm 9 mps 756 mmHg 54%
    11:00 +29°C° 0 mm 9 mps 756 mmHg 50%
    12:00 +29°C° 0 mm 9 mps 756 mmHg 49%
    13:00 +29°C° 0 mm 9 mps 755 mmHg 49%
    14:00 +29°C° 0 mm 9 mps 755 mmHg 48%
    15:00 +28°C° 0.1 mm 9 mps 755 mmHg 55%
    16:00 +27°C° 0.1 mm 8 mps 755 mmHg 61%
    17:00 +26°C° 0.1 mm 8 mps 754 mmHg 67%
    18:00 +24°C° 0.1 mm 8 mps 754 mmHg 71%
    19:00 +23°C° 0.1 mm 7 mps 754 mmHg 74%
    20:00 +22°C° 0.1 mm 7 mps 754 mmHg 78%
    21:00 +21°C° 0 mm 6 mps 754 mmHg 80%
    22:00 +21°C° 0 mm 6 mps 754 mmHg 81%
    23:00 +20°C° 0 mm 5 mps 754 mmHg 83%

    27 June, Wednesday

    Time Temperature Precipitation Wind Pressure Humidity
    00:00 +20°C° 1.2 mm 5 mps 754 mmHg 84%
    01:00 +20°C° 1.2 mm 5 mps 754 mmHg 86%
    02:00 +19°C° 1.2 mm 5 mps 754 mmHg 88%
    03:00 +19°C° 2 mm 5 mps 754 mmHg 89%
    04:00 +19°C° 2 mm 5 mps 753 mmHg 90%
    05:00 +17°C° 2 mm 5 mps 753 mmHg 91%
    06:00 +19°C° 2.2 mm 5 mps 754 mmHg 91%
    07:00 +20°C° 2.2 mm 5 mps 754 mmHg 91%
    08:00 +21°C° 2.2 mm 5 mps 754 mmHg 90%
    09:00 +22°C° 0.8 mm 4 mps 754 mmHg 86%
    10:00 +23°C° 0.8 mm 4 mps 754 mmHg 82%
    11:00 +26°C° 0.8 mm 4 mps 754 mmHg 77%
    12:00 +26°C° 0.5 mm 4 mps 754 mmHg 77%
    13:00 +26°C° 0.5 mm 4 mps 754 mmHg 77%
    14:00 +27°C° 0.5 mm 3 mps 753 mmHg 77%
    15:00 +27°C° 0.4 mm 3 mps 753 mmHg 76%
    16:00 +27°C° 0.4 mm 2 mps 753 mmHg 75%
    17:00 +27°C° 0.4 mm 2 mps 753 mmHg 74%
    18:00 +26°C° 0.3 mm 1 mps 753 mmHg 79%
    19:00 +24°C° 0.3 mm 1 mps 753 mmHg 84%
    20:00 +23°C° 0.3 mm 1 mps 753 mmHg 89%
    21:00 +22°C° 0.1 mm 1 mps 754 mmHg 91%
    22:00 +21°C° 0.1 mm 2 mps 754 mmHg 92%
    23:00 +20°C° 0.1 mm 2 mps 754 mmHg 94%

    28 June, Thursday

    Time Temperature Precipitation Wind Pressure Humidity
    00:00 +20°C° 0.1 mm 2 mps 754 mmHg 94%
    01:00 +19°C° 0.1 mm 2 mps 754 mmHg 94%
    02:00 +19°C° 0.1 mm 2 mps 754 mmHg 95%
    03:00 +19°C° 0 mm 2 mps 754 mmHg 95%
    04:00 +18°C° 0 mm 2 mps 754 mmHg 95%
    05:00 +18°C° 0 mm 2 mps 754 mmHg 95%
    06:00 +20°C° 0.1 mm 2 mps 754 mmHg 89%
    07:00 +21°C° 0.1 mm 2 mps 754 mmHg 84%
    08:00 +24°C° 0.1 mm 2 mps 754 mmHg 78%
    09:00 +26°C° 0.6 mm 2 mps 754 mmHg 72%
    10:00 +27°C° 0.6 mm 2 mps 754 mmHg 65%
    11:00 +29°C° 0.6 mm 2 mps 754 mmHg 59%
    12:00 +29°C° 0.8 mm 2 mps 754 mmHg 60%
    13:00 +28°C° 0.8 mm 2 mps 754 mmHg 60%
    14:00 +28°C° 0.8 mm 2 mps 754 mmHg 61%
    15:00 +29°C° 0.2 mm 2 mps 754 mmHg 60%
    16:00 +29°C° 0.2 mm 2 mps 754 mmHg 59%
    17:00 +29°C° 0.2 mm 2 mps 754 mmHg 58%
    18:00 +27°C° 0.1 mm 2 mps 754 mmHg 66%
    19:00 +26°C° 0.1 mm 2 mps 754 mmHg 73%
    20:00 +24°C° 0.1 mm 2 mps 754 mmHg 81%
    21:00 +23°C° 0.1 mm 2 mps 754 mmHg 84%
    22:00 +22°C° 0.1 mm 1 mps 755 mmHg 87%
    23:00 +22°C° 0.1 mm 1 mps 755 mmHg 90%
    Show more